TimeCDT,TemperatureF,Dew PointF,Humidity,Sea Level PressureIn,VisibilityMPH,Wind Direction,Wind SpeedMPH,Gust SpeedMPH,PrecipitationIn,Events,Conditions,WindDirDegrees,DateUTC
12:13 AM,55.4,55.4,100,29.91,0.8,East,17.3,-,N/A,Thunderstorm,Overcast,100,2013-05-18 05:13:00
12:33 AM,55.4,55.4,100,29.90,1.0,East,16.1,20.7,N/A,,Overcast,100,2013-05-18 05:33:00
12:53 AM,55.4,55.4,100,29.91,1.0,East,16.1,-,N/A,Thunderstorm,Overcast,100,2013-05-18 05:53:00
1:13 AM,55.4,55.4,100,29.91,1.0,East,16.1,-,0.01,Rain-Thunderstorm,Light Thunderstorms and Rain,100,2013-05-18 06:13:00
1:33 AM,55.4,55.4,100,29.87,1.2,East,25.3,-,0.52,Rain-Thunderstorm,Heavy Thunderstorms and Rain,90,2013-05-18 06:33:00
1:54 AM,55.4,55.4,100,29.90,5.0,East,9.2,12.7,0.52,Thunderstorm,Overcast,90,2013-05-18 06:54:00
2:13 AM,55.4,55.4,100,29.89,5.0,ENE,11.5,-,N/A,Thunderstorm,Unknown,70,2013-05-18 07:13:00
2:33 AM,55.4,55.4,100,29.89,4.0,East,8.1,-,0.02,Rain-Thunderstorm,Light Thunderstorms and Rain,90,2013-05-18 07:33:00
2:54 AM,55.4,55.4,100,29.89,4.0,SE,3.5,-,0.02,Thunderstorm,Overcast,130,2013-05-18 07:54:00
3:13 AM,55.4,55.4,100,29.89,3.0,East,10.4,-,N/A,Rain,Light Rain,80,2013-05-18 08:13:00
3:34 AM,55.4,55.4,100,29.89,4.0,NE,9.2,-,N/A,,Overcast,50,2013-05-18 08:34:00
3:53 AM,57.2,55.4,94,29.88,4.0,East,11.5,-,N/A,,Overcast,90,2013-05-18 08:53:00
4:13 AM,57.2,55.4,94,29.87,3.0,East,11.5,-,N/A,,Overcast,90,2013-05-18 09:13:00
4:34 AM,57.2,55.4,94,29.91,3.0,ESE,8.1,-,N/A,,Overcast,120,2013-05-18 09:34:00
4:53 AM,57.2,55.4,94,29.89,2.5,East,10.4,-,N/A,,Overcast,90,2013-05-18 09:53:00
5:13 AM,57.2,57.2,100,29.89,2.5,East,11.5,-,N/A,,Overcast,80,2013-05-18 10:13:00
5:33 AM,57.2,57.2,100,29.90,2.5,East,12.7,-,N/A,,Overcast,80,2013-05-18 10:33:00
5:53 AM,57.2,57.2,100,29.92,3.0,ENE,10.4,-,N/A,,Overcast,70,2013-05-18 10:53:00
6:13 AM,57.2,57.2,100,29.92,2.5,ENE,11.5,17.3,N/A,,Overcast,70,2013-05-18 11:13:00
6:34 AM,57.2,57.2,100,29.93,3.0,East,8.1,-,N/A,Rain,Light Rain,80,2013-05-18 11:34:00
6:53 AM,57.2,55.4,94,29.90,2.5,ENE,12.7,-,0.03,Rain,Light Rain,70,2013-05-18 11:53:00
7:13 AM,57.2,57.2,100,29.91,2.5,East,11.5,-,0.01,Rain,Rain,100,2013-05-18 12:13:00
7:34 AM,57.2,57.2,100,29.90,3.0,East,13.8,-,0.02,Rain,Light Rain,90,2013-05-18 12:34:00
7:53 AM,57.2,57.2,100,29.90,3.0,ESE,13.8,-,0.02,Rain-Thunderstorm,Light Thunderstorms and Rain,110,2013-05-18 12:53:00
8:13 AM,59.0,57.2,94,29.91,2.5,ESE,11.5,-,0.01,Rain,Light Rain,120,2013-05-18 13:13:00
8:34 AM,59.0,57.2,94,29.90,2.5,SE,11.5,-,0.04,Rain,Light Rain,130,2013-05-18 13:34:00
8:53 AM,60.8,60.8,100,29.88,3.0,ESE,16.1,20.7,0.04,Thunderstorm,Overcast,120,2013-05-18 13:53:00
9:13 AM,60.8,59.0,94,29.89,2.5,SE,17.3,-,0.01,,Overcast,130,2013-05-18 14:13:00
9:33 AM,62.6,60.8,94,29.88,3.0,SE,15.0,-,0.01,,Overcast,130,2013-05-18 14:33:00
9:53 AM,62.6,62.6,100,29.88,4.0,SE,13.8,-,0.01,,Overcast,140,2013-05-18 14:53:00
10:13 AM,64.4,62.6,94,29.88,4.0,SSE,16.1,-,N/A,,Overcast,150,2013-05-18 15:13:00
10:33 AM,64.4,62.6,94,29.89,5.0,SSE,19.6,-,N/A,,Overcast,150,2013-05-18 15:33:00
10:53 AM,64.4,62.6,94,29.88,5.0,SSE,16.1,-,N/A,,Overcast,160,2013-05-18 15:53:00
11:13 AM,66.2,62.6,88,29.87,7.0,SE,12.7,-,N/A,,Mostly Cloudy,140,2013-05-18 16:13:00
11:33 AM,68.0,64.4,88,29.86,7.0,SSE,17.3,-,N/A,,Scattered Clouds,150,2013-05-18 16:33:00
11:53 AM,68.0,64.4,88,29.85,7.0,SE,17.3,-,N/A,,Scattered Clouds,140,2013-05-18 16:53:00
12:13 PM,69.8,64.4,83,29.85,7.0,SE,13.8,-,N/A,,Scattered Clouds,140,2013-05-18 17:13:00
12:33 PM,69.8,64.4,83,29.85,7.0,SSE,16.1,-,N/A,,Scattered Clouds,150,2013-05-18 17:33:00
12:53 PM,69.8,64.4,83,29.85,7.0,SSE,13.8,-,N/A,,Clear,150,2013-05-18 17:53:00
1:14 PM,69.8,64.4,83,29.85,7.0,SSE,13.8,-,N/A,,Clear,150,2013-05-18 18:14:00
1:33 PM,69.8,64.4,83,29.84,7.0,SSE,11.5,-,N/A,,Clear,150,2013-05-18 18:33:00
1:53 PM,69.8,64.4,83,29.84,7.0,SSE,13.8,-,N/A,,Clear,150,2013-05-18 18:53:00
2:14 PM,71.6,64.4,78,29.84,7.0,SSE,13.8,-,N/A,,Clear,160,2013-05-18 19:14:00
2:33 PM,73.4,64.4,73,29.84,7.0,SSE,17.3,-,N/A,,Clear,160,2013-05-18 19:33:00
2:53 PM,73.4,64.4,73,29.84,7.0,SE,15.0,-,N/A,,Clear,140,2013-05-18 19:53:00
3:14 PM,73.4,64.4,73,29.84,7.0,SSE,11.5,-,N/A,,Clear,150,2013-05-18 20:14:00
3:33 PM,73.4,66.2,78,29.84,7.0,SE,10.4,-,N/A,,Clear,130,2013-05-18 20:33:00
3:53 PM,73.4,66.2,78,29.84,7.0,SE,11.5,-,N/A,,Clear,130,2013-05-18 20:53:00
4:14 PM,73.4,66.2,78,29.83,5.0,SE,12.7,-,N/A,,Haze,130,2013-05-18 21:14:00
4:33 PM,73.4,66.2,78,29.83,5.0,ESE,11.5,17.3,N/A,,Haze,120,2013-05-18 21:33:00
4:53 PM,75.2,68.0,78,29.83,7.0,SE,12.7,-,N/A,,Clear,130,2013-05-18 21:53:00
5:14 PM,77.0,68.0,74,29.82,7.0,SE,12.7,-,N/A,,Clear,130,2013-05-18 22:14:00
5:33 PM,78.8,68.0,69,29.82,7.0,ESE,15.0,18.4,N/A,,Clear,120,2013-05-18 22:33:00
5:53 PM,77.0,68.0,74,29.82,7.0,ESE,15.0,20.7,N/A,,Clear,120,2013-05-18 22:53:00
6:13 PM,75.2,66.2,73,29.81,7.0,ESE,12.7,-,N/A,,Clear,120,2013-05-18 23:13:00
6:33 PM,73.4,66.2,78,29.82,7.0,SE,13.8,-,N/A,Rain-Thunderstorm,Light Thunderstorms and Rain,130,2013-05-18 23:33:00
6:54 PM,71.6,64.4,78,29.81,7.0,SE,15.0,18.4,0.13,Rain-Thunderstorm,Heavy Thunderstorms and Rain,130,2013-05-18 23:54:00
7:13 PM,71.6,66.2,83,29.80,10.0,ESE,9.2,-,N/A,,Scattered Clouds,110,2013-05-19 00:13:00
7:33 PM,69.8,66.2,88,29.81,7.0,East,8.1,-,N/A,Thunderstorm,Thunderstorm,100,2013-05-19 00:33:00
7:53 PM,69.8,66.2,88,29.80,7.0,ESE,9.2,-,N/A,Rain,Light Rain,110,2013-05-19 00:53:00
8:13 PM,69.8,66.2,88,29.79,7.0,SE,10.4,-,N/A,,Scattered Clouds,130,2013-05-19 01:13:00
8:33 PM,69.8,64.4,83,29.79,10.0,East,10.4,-,N/A,,Scattered Clouds,100,2013-05-19 01:33:00
8:53 PM,69.8,64.4,83,29.79,10.0,East,8.1,-,N/A,,Clear,100,2013-05-19 01:53:00
9:13 PM,69.8,64.4,83,29.79,10.0,ESE,6.9,-,N/A,,Scattered Clouds,110,2013-05-19 02:13:00
9:33 PM,69.8,64.4,83,29.78,10.0,ESE,8.1,-,N/A,,Scattered Clouds,110,2013-05-19 02:33:00
9:53 PM,68.0,64.4,88,29.78,10.0,ESE,9.2,-,N/A,,Clear,110,2013-05-19 02:53:00
10:13 PM,66.2,62.6,88,29.77,10.0,East,6.9,-,N/A,,Clear,100,2013-05-19 03:13:00
10:34 PM,66.2,62.6,88,29.78,10.0,ESE,8.1,-,N/A,,Clear,120,2013-05-19 03:34:00
10:53 PM,66.2,62.6,88,29.79,10.0,ESE,8.1,-,N/A,,Clear,120,2013-05-19 03:53:00
11:13 PM,66.2,62.6,88,29.78,10.0,ESE,8.1,-,N/A,,Clear,110,2013-05-19 04:13:00
11:34 PM,64.4,62.6,94,29.78,10.0,East,5.8,-,N/A,,Clear,90,2013-05-19 04:34:00
11:53 PM,64.4,62.6,94,29.77,10.0,East,8.1,-,N/A,,Clear,90,2013-05-19 04:53:00